Year,Month,Day,Hour,Minute,Value (Times are PST for temperature in C)
2012,06,17,00,00,11.30
2012,06,17,00,01,11.30
2012,06,17,00,02,11.30
2012,06,17,00,03,11.30
2012,06,17,00,04,11.20
2012,06,17,00,05,11.20
2012,06,17,00,06,11.20
2012,06,17,00,07,11.20
2012,06,17,00,08,11.20
2012,06,17,00,09,11.20
2012,06,17,00,10,11.20
2012,06,17,00,11,11.20
2012,06,17,00,12,11.20
2012,06,17,00,13,11.20
2012,06,17,00,14,11.20
2012,06,17,00,15,11.20
2012,06,17,00,16,11.20
2012,06,17,00,17,11.20
2012,06,17,00,18,11.20
2012,06,17,00,19,11.10
2012,06,17,00,20,11.10
2012,06,17,00,21,11.20
2012,06,17,00,22,11.20
2012,06,17,00,23,11.20
2012,06,17,00,24,11.20
2012,06,17,00,25,11.20
2012,06,17,00,26,11.20
2012,06,17,00,27,11.10
2012,06,17,00,28,11.10
2012,06,17,00,29,11.10
2012,06,17,00,30,11.00
2012,06,17,00,31,11.00
2012,06,17,00,32,11.00
2012,06,17,00,33,11.00
2012,06,17,00,34,11.00
2012,06,17,00,35,11.00
2012,06,17,00,36,10.90
2012,06,17,00,37,10.90
2012,06,17,00,38,10.90
2012,06,17,00,39,10.90
2012,06,17,00,40,10.90
2012,06,17,00,41,11.00
2012,06,17,00,42,11.00
2012,06,17,00,43,11.00
2012,06,17,00,44,11.10
2012,06,17,00,45,11.10
2012,06,17,00,46,11.10
2012,06,17,00,47,11.00
2012,06,17,00,48,11.00
2012,06,17,00,49,10.90
2012,06,17,00,50,10.90
2012,06,17,00,51,10.90
2012,06,17,00,52,10.90
2012,06,17,00,53,11.00
2012,06,17,00,54,11.00
2012,06,17,00,55,11.00
2012,06,17,00,56,11.10
2012,06,17,00,57,11.10
2012,06,17,00,58,11.10
2012,06,17,00,59,11.10
2012,06,17,01,00,11.20
2012,06,17,01,01,11.20
2012,06,17,01,02,11.30
2012,06,17,01,03,11.30
2012,06,17,01,04,11.30
2012,06,17,01,05,11.40
2012,06,17,01,06,11.50
2012,06,17,01,07,11.50
2012,06,17,01,08,11.60
2012,06,17,01,09,11.60
2012,06,17,01,10,11.60
2012,06,17,01,11,11.70
2012,06,17,01,12,11.70
2012,06,17,01,13,11.70
2012,06,17,01,14,11.90
2012,06,17,01,15,12.00
2012,06,17,01,16,12.10
2012,06,17,01,17,12.00
2012,06,17,01,18,12.00
2012,06,17,01,19,12.00
2012,06,17,01,20,11.90
2012,06,17,01,21,12.00
2012,06,17,01,22,12.00
2012,06,17,01,23,12.10
2012,06,17,01,24,12.10
2012,06,17,01,25,12.10
2012,06,17,01,26,12.10
2012,06,17,01,27,12.10
2012,06,17,01,28,12.10
2012,06,17,01,29,12.10
2012,06,17,01,30,12.10
2012,06,17,01,31,12.10
2012,06,17,01,32,12.30
2012,06,17,01,33,12.50
2012,06,17,01,34,12.60
2012,06,17,01,35,12.70
2012,06,17,01,36,12.80
2012,06,17,01,37,12.80
2012,06,17,01,38,12.80
2012,06,17,01,39,12.90
2012,06,17,01,40,12.90
2012,06,17,01,41,12.90
2012,06,17,01,42,12.90
2012,06,17,01,43,13.00
2012,06,17,01,44,13.00
2012,06,17,01,45,13.00
2012,06,17,01,46,13.00
2012,06,17,01,47,13.00
2012,06,17,01,48,13.00
2012,06,17,01,49,13.00
2012,06,17,01,50,13.00
2012,06,17,01,51,13.00
2012,06,17,01,52,13.00
2012,06,17,01,53,13.00
2012,06,17,01,54,12.90
2012,06,17,01,55,12.90
2012,06,17,01,56,12.90
2012,06,17,01,57,12.80
2012,06,17,01,58,12.80
2012,06,17,01,59,12.80
2012,06,17,02,00,12.80
2012,06,17,02,01,12.70
2012,06,17,02,02,12.70
2012,06,17,02,03,12.70
2012,06,17,02,04,12.70
2012,06,17,02,05,12.70
2012,06,17,02,06,12.70
2012,06,17,02,07,12.70
2012,06,17,02,08,12.60
2012,06,17,02,09,12.70
2012,06,17,02,10,12.70
2012,06,17,02,11,12.70
2012,06,17,02,12,12.70
2012,06,17,02,13,12.70
2012,06,17,02,14,12.70
2012,06,17,02,15,12.70
2012,06,17,02,16,12.70
2012,06,17,02,17,12.70
2012,06,17,02,18,12.70
2012,06,17,02,19,12.70
2012,06,17,02,20,12.70
2012,06,17,02,21,12.60
2012,06,17,02,22,12.60
2012,06,17,02,23,12.50
2012,06,17,02,24,12.50
2012,06,17,02,25,12.40
2012,06,17,02,26,12.40
2012,06,17,02,27,12.40
2012,06,17,02,28,12.40
2012,06,17,02,29,12.40
2012,06,17,02,30,12.50
2012,06,17,02,31,12.50
2012,06,17,02,32,12.60
2012,06,17,02,33,12.70
2012,06,17,02,34,12.80
2012,06,17,02,35,12.80
2012,06,17,02,36,12.90
2012,06,17,02,37,12.90
2012,06,17,02,38,12.90
2012,06,17,02,39,13.00
2012,06,17,02,40,13.00
2012,06,17,02,41,13.00
2012,06,17,02,42,13.00
2012,06,17,02,43,13.00
2012,06,17,02,44,12.90
2012,06,17,02,45,12.90
2012,06,17,02,46,12.90
2012,06,17,02,47,13.00
2012,06,17,02,48,13.00
2012,06,17,02,49,13.00
2012,06,17,02,50,13.00
2012,06,17,02,51,13.00
2012,06,17,02,52,12.90
2012,06,17,02,53,12.90
2012,06,17,02,54,12.90
2012,06,17,02,55,12.90
2012,06,17,02,56,12.90
2012,06,17,02,57,12.90
2012,06,17,02,58,12.80
2012,06,17,02,59,12.80
2012,06,17,03,00,12.80
2012,06,17,03,01,12.80
2012,06,17,03,02,12.80
2012,06,17,03,03,12.80
2012,06,17,03,04,12.70
2012,06,17,03,05,12.70
2012,06,17,03,06,12.70
2012,06,17,03,07,12.60
2012,06,17,03,08,12.60
2012,06,17,03,09,12.60
2012,06,17,03,10,12.60
2012,06,17,03,11,12.60
2012,06,17,03,12,12.60
2012,06,17,03,13,12.60
2012,06,17,03,14,12.50
2012,06,17,03,15,12.40
2012,06,17,03,16,12.40
2012,06,17,03,17,12.40
2012,06,17,03,18,12.40
2012,06,17,03,19,12.40
2012,06,17,03,20,12.40
2012,06,17,03,21,12.30
2012,06,17,03,22,12.30
2012,06,17,03,23,12.30
2012,06,17,03,24,12.30
2012,06,17,03,25,12.30
2012,06,17,03,26,12.30
2012,06,17,03,27,12.30
2012,06,17,03,28,12.30
2012,06,17,03,29,12.20
2012,06,17,03,30,12.20
2012,06,17,03,31,12.20
2012,06,17,03,32,12.20
2012,06,17,03,33,12.20
2012,06,17,03,34,12.10
2012,06,17,03,35,12.10
2012,06,17,03,36,12.10
2012,06,17,03,37,12.10
2012,06,17,03,38,12.10
2012,06,17,03,39,12.00
2012,06,17,03,40,12.00
2012,06,17,03,41,12.00
2012,06,17,03,42,12.00
2012,06,17,03,43,11.90
2012,06,17,03,44,11.90
2012,06,17,03,45,12.00
2012,06,17,03,46,12.00
2012,06,17,03,47,12.00
2012,06,17,03,48,11.90
2012,06,17,03,49,11.90
2012,06,17,03,50,11.90
2012,06,17,03,51,11.90
2012,06,17,03,52,11.90
2012,06,17,03,53,11.90
2012,06,17,03,54,11.90
2012,06,17,03,55,11.90
2012,06,17,03,56,11.90
2012,06,17,03,57,11.90
2012,06,17,03,58,11.90
2012,06,17,03,59,12.00
2012,06,17,04,00,12.00
2012,06,17,04,01,12.10
2012,06,17,04,02,12.20
2012,06,17,04,03,12.20
2012,06,17,04,04,12.20
2012,06,17,04,05,12.20
2012,06,17,04,06,12.20
2012,06,17,04,07,12.20
2012,06,17,04,08,12.20
2012,06,17,04,09,12.20
2012,06,17,04,10,12.20
2012,06,17,04,11,12.20
2012,06,17,04,12,12.20
2012,06,17,04,13,12.20
2012,06,17,04,14,12.20
2012,06,17,04,15,12.20
2012,06,17,04,16,12.20
2012,06,17,04,17,12.20
2012,06,17,04,18,12.30
2012,06,17,04,19,12.30
2012,06,17,04,20,12.40
2012,06,17,04,21,12.50
2012,06,17,04,22,12.60
2012,06,17,04,23,12.60
2012,06,17,04,24,12.60
2012,06,17,04,25,12.60
2012,06,17,04,26,12.70
2012,06,17,04,27,12.80
2012,06,17,04,28,12.90
2012,06,17,04,29,12.90
2012,06,17,04,30,13.00
2012,06,17,04,31,13.00
2012,06,17,04,32,13.00
2012,06,17,04,33,13.00
2012,06,17,04,34,13.00
2012,06,17,04,35,13.00
2012,06,17,04,36,13.00
2012,06,17,04,37,13.10
2012,06,17,04,38,13.10
2012,06,17,04,39,13.20
2012,06,17,04,40,13.20
2012,06,17,04,41,13.30
2012,06,17,04,42,13.30
2012,06,17,04,43,13.30
2012,06,17,04,44,13.20
2012,06,17,04,45,13.20
2012,06,17,04,46,13.20
2012,06,17,04,47,13.20
2012,06,17,04,48,13.20
2012,06,17,04,49,13.20
2012,06,17,04,50,13.30
2012,06,17,04,51,13.30
2012,06,17,04,52,13.30
2012,06,17,04,53,13.20
2012,06,17,04,54,13.20
2012,06,17,04,55,13.20
2012,06,17,04,56,13.30
2012,06,17,04,57,13.30
2012,06,17,04,58,13.30
2012,06,17,04,59,13.30
2012,06,17,05,00,13.40
2012,06,17,05,01,13.40
2012,06,17,05,02,13.40
2012,06,17,05,03,13.40
2012,06,17,05,04,13.40
2012,06,17,05,05,13.40
2012,06,17,05,06,13.40
2012,06,17,05,07,13.40
2012,06,17,05,08,13.50
2012,06,17,05,09,13.50
2012,06,17,05,10,13.50
2012,06,17,05,11,13.50
2012,06,17,05,12,13.50
2012,06,17,05,13,13.60
2012,06,17,05,14,13.60
2012,06,17,05,15,13.60
2012,06,17,05,16,13.60
2012,06,17,05,17,13.60
2012,06,17,05,18,13.60
2012,06,17,05,19,13.60
2012,06,17,05,20,13.50
2012,06,17,05,21,13.50
2012,06,17,05,22,13.50
2012,06,17,05,23,13.50
2012,06,17,05,24,13.40
2012,06,17,05,25,13.40
2012,06,17,05,26,13.40
2012,06,17,05,27,13.40
2012,06,17,05,28,13.40
2012,06,17,05,29,13.40
2012,06,17,05,30,13.40
2012,06,17,05,31,13.40
2012,06,17,05,32,13.40
2012,06,17,05,33,13.40
2012,06,17,05,34,13.40
2012,06,17,05,35,13.40
2012,06,17,05,36,13.40
2012,06,17,05,37,13.50
2012,06,17,05,38,13.50
2012,06,17,05,39,13.60
2012,06,17,05,40,13.60
2012,06,17,05,41,13.70
2012,06,17,05,42,13.80
2012,06,17,05,43,13.80
2012,06,17,05,44,14.00
2012,06,17,05,45,14.10
2012,06,17,05,46,14.20
2012,06,17,05,47,14.30
2012,06,17,05,48,14.30
2012,06,17,05,49,14.30
2012,06,17,05,50,14.40
2012,06,17,05,51,14.40
2012,06,17,05,52,14.40
2012,06,17,05,53,14.40
2012,06,17,05,54,14.40
2012,06,17,05,55,14.40
2012,06,17,05,56,14.50
2012,06,17,05,57,14.50
2012,06,17,05,58,14.50
2012,06,17,05,59,14.60
2012,06,17,06,00,14.60
2012,06,17,06,01,14.60
2012,06,17,06,02,14.60
2012,06,17,06,03,14.60
2012,06,17,06,04,14.70
2012,06,17,06,05,14.70
2012,06,17,06,06,14.70
2012,06,17,06,07,14.70
2012,06,17,06,08,14.70
2012,06,17,06,09,14.70
2012,06,17,06,10,14.70
2012,06,17,06,11,14.60
2012,06,17,06,12,14.60
2012,06,17,06,13,14.60
2012,06,17,06,14,14.50
2012,06,17,06,15,14.50
2012,06,17,06,16,14.50
2012,06,17,06,17,14.40
2012,06,17,06,18,14.40
2012,06,17,06,19,14.40
2012,06,17,06,20,14.30
2012,06,17,06,21,14.30
2012,06,17,06,22,14.30
2012,06,17,06,23,14.30
2012,06,17,06,24,14.30
2012,06,17,06,25,14.30
2012,06,17,06,26,14.30
2012,06,17,06,27,14.30
2012,06,17,06,28,14.30
2012,06,17,06,29,14.30
2012,06,17,06,30,14.30
2012,06,17,06,31,14.30
2012,06,17,06,32,14.30
2012,06,17,06,33,14.30
2012,06,17,06,34,14.30
2012,06,17,06,35,14.30
2012,06,17,06,36,14.30
2012,06,17,06,37,14.30
2012,06,17,06,38,14.40
2012,06,17,06,39,14.40
2012,06,17,06,40,14.40
2012,06,17,06,41,14.40
2012,06,17,06,42,14.40
2012,06,17,06,43,14.40
2012,06,17,06,44,14.40
2012,06,17,06,45,14.40
2012,06,17,06,46,14.40
2012,06,17,06,47,14.40
2012,06,17,06,48,14.50
2012,06,17,06,49,14.50
2012,06,17,06,50,14.60
2012,06,17,06,51,14.60
2012,06,17,06,52,14.60
2012,06,17,06,53,14.70
2012,06,17,06,54,14.70
2012,06,17,06,55,14.70
2012,06,17,06,56,14.70
2012,06,17,06,57,14.70
2012,06,17,06,58,14.70
2012,06,17,06,59,14.70
2012,06,17,07,00,14.70
2012,06,17,07,01,14.70
2012,06,17,07,02,14.80
2012,06,17,07,03,14.80
2012,06,17,07,04,14.80
2012,06,17,07,05,14.80
2012,06,17,07,06,14.70
2012,06,17,07,07,14.70
2012,06,17,07,08,14.70
2012,06,17,07,09,14.70
2012,06,17,07,10,14.70
2012,06,17,07,11,14.70
2012,06,17,07,12,14.60
2012,06,17,07,13,14.60
2012,06,17,07,14,14.60
2012,06,17,07,15,14.60
2012,06,17,07,16,14.60
2012,06,17,07,17,14.60
2012,06,17,07,18,14.60
2012,06,17,07,19,14.50
2012,06,17,07,20,14.50
2012,06,17,07,21,14.50
2012,06,17,07,22,14.50
2012,06,17,07,23,14.50
2012,06,17,07,24,14.50
2012,06,17,07,25,14.50
2012,06,17,07,26,14.40
2012,06,17,07,27,14.40
2012,06,17,07,28,14.40
2012,06,17,07,29,14.30
2012,06,17,07,30,14.30
2012,06,17,07,31,14.30
2012,06,17,07,32,14.30
2012,06,17,07,33,14.30
2012,06,17,07,34,14.30
2012,06,17,07,35,14.30
2012,06,17,07,36,14.20
2012,06,17,07,37,14.20
2012,06,17,07,38,14.20
2012,06,17,07,39,14.30
2012,06,17,07,40,14.30
2012,06,17,07,41,14.30
2012,06,17,07,42,14.30
2012,06,17,07,43,14.30
2012,06,17,07,44,14.30
2012,06,17,07,45,14.40
2012,06,17,07,46,14.40
2012,06,17,07,47,14.40
2012,06,17,07,48,14.40
2012,06,17,07,49,14.50
2012,06,17,07,50,14.50
2012,06,17,07,51,14.60
2012,06,17,07,52,14.60
2012,06,17,07,53,14.60
2012,06,17,07,54,14.60
2012,06,17,07,55,14.60
2012,06,17,07,56,14.60
2012,06,17,07,57,14.70
2012,06,17,07,58,14.70
2012,06,17,07,59,14.70
2012,06,17,08,00,14.70
2012,06,17,08,01,14.80
2012,06,17,08,02,14.80
2012,06,17,08,03,14.80
2012,06,17,08,04,14.80
2012,06,17,08,05,14.80
2012,06,17,08,06,14.80
2012,06,17,08,07,14.80
2012,06,17,08,08,14.80
2012,06,17,08,09,14.80
2012,06,17,08,10,14.90
2012,06,17,08,11,14.90
2012,06,17,08,12,15.00
2012,06,17,08,13,15.10
2012,06,17,08,14,15.10
2012,06,17,08,15,15.20
2012,06,17,08,16,15.30
2012,06,17,08,17,15.30
2012,06,17,08,18,15.40
2012,06,17,08,19,15.40
2012,06,17,08,20,15.40
2012,06,17,08,21,15.50
2012,06,17,08,22,15.50
2012,06,17,08,23,15.50
2012,06,17,08,24,15.50
2012,06,17,08,25,15.50
2012,06,17,08,26,15.50
2012,06,17,08,27,15.50
2012,06,17,08,28,15.50
2012,06,17,08,29,15.40
2012,06,17,08,30,15.30
2012,06,17,08,31,15.30
2012,06,17,08,32,15.20
2012,06,17,08,33,15.20
2012,06,17,08,34,15.20
2012,06,17,08,35,15.20
2012,06,17,08,36,15.20
2012,06,17,08,37,15.20
2012,06,17,08,38,15.20
2012,06,17,08,39,15.20
2012,06,17,08,40,15.30
2012,06,17,08,41,15.30
2012,06,17,08,42,15.40
2012,06,17,08,43,15.40
2012,06,17,08,44,15.50
2012,06,17,08,45,15.50
2012,06,17,08,46,15.60
2012,06,17,08,47,15.60
2012,06,17,08,48,15.70
2012,06,17,08,49,15.80
2012,06,17,08,50,15.80
2012,06,17,08,51,15.90
2012,06,17,08,52,16.00
2012,06,17,08,53,16.10
2012,06,17,08,54,16.10
2012,06,17,08,55,16.20
2012,06,17,08,56,16.20
2012,06,17,08,57,16.10
2012,06,17,08,58,15.90
2012,06,17,08,59,15.90
2012,06,17,09,00,15.80
2012,06,17,09,01,15.80
2012,06,17,09,02,15.80
2012,06,17,09,03,15.80
2012,06,17,09,04,15.80
2012,06,17,09,05,15.70
2012,06,17,09,06,15.70
2012,06,17,09,07,15.70
2012,06,17,09,08,15.70
2012,06,17,09,09,15.70
2012,06,17,09,10,15.70
2012,06,17,09,11,15.70
2012,06,17,09,12,15.70
2012,06,17,09,13,15.80
2012,06,17,09,14,15.80
2012,06,17,09,15,15.80
2012,06,17,09,16,15.80
2012,06,17,09,17,15.80
2012,06,17,09,18,15.80
2012,06,17,09,19,15.80
2012,06,17,09,20,15.90
2012,06,17,09,21,15.90
2012,06,17,09,22,15.90
2012,06,17,09,23,16.00
2012,06,17,09,24,16.00
2012,06,17,09,25,16.00
2012,06,17,09,26,16.00
2012,06,17,09,27,16.00
2012,06,17,09,28,16.00
2012,06,17,09,29,15.90
2012,06,17,09,30,15.90
2012,06,17,09,31,15.80
2012,06,17,09,32,15.70
2012,06,17,09,33,15.70
2012,06,17,09,34,15.60
2012,06,17,09,35,15.60
2012,06,17,09,36,15.60
2012,06,17,09,37,15.60
2012,06,17,09,38,15.60
2012,06,17,09,39,15.60
2012,06,17,09,40,15.60
2012,06,17,09,41,15.60
2012,06,17,09,42,15.70
2012,06,17,09,43,15.70
2012,06,17,09,44,15.70
2012,06,17,09,45,15.60
2012,06,17,09,46,15.50
2012,06,17,09,47,15.40
2012,06,17,09,48,15.40
2012,06,17,09,49,15.50
2012,06,17,09,50,15.40
2012,06,17,09,51,15.40
2012,06,17,09,52,15.40
2012,06,17,09,53,15.40
2012,06,17,09,54,15.40
2012,06,17,09,55,15.40
2012,06,17,09,56,15.50
2012,06,17,09,57,15.50
2012,06,17,09,58,15.60
2012,06,17,09,59,15.60
2012,06,17,10,00,15.60
2012,06,17,10,01,15.60
2012,06,17,10,02,15.60
2012,06,17,10,03,15.60
2012,06,17,10,04,15.60
2012,06,17,10,05,15.60
2012,06,17,10,06,15.70
2012,06,17,10,07,15.70
2012,06,17,10,08,15.80
2012,06,17,10,09,15.80
2012,06,17,10,10,15.90
2012,06,17,10,11,15.90
2012,06,17,10,12,15.90
2012,06,17,10,13,16.00
2012,06,17,10,14,16.00
2012,06,17,10,15,16.00
2012,06,17,10,16,16.00
2012,06,17,10,17,15.90
2012,06,17,10,18,15.90
2012,06,17,10,19,16.00
2012,06,17,10,20,16.00
2012,06,17,10,21,16.00
2012,06,17,10,22,16.10
2012,06,17,10,23,16.10
2012,06,17,10,24,16.10
2012,06,17,10,25,16.10
2012,06,17,10,26,16.10
2012,06,17,10,27,16.10
2012,06,17,10,28,16.10
2012,06,17,10,29,16.10
2012,06,17,10,30,16.10
2012,06,17,10,31,16.20
2012,06,17,10,32,16.20
2012,06,17,10,33,16.20
2012,06,17,10,34,16.20
2012,06,17,10,35,16.30
2012,06,17,10,36,16.30
2012,06,17,10,37,16.30
2012,06,17,10,38,16.30
2012,06,17,10,39,16.40
2012,06,17,10,40,16.40
2012,06,17,10,41,16.40
2012,06,17,10,42,16.40
2012,06,17,10,43,16.40
2012,06,17,10,44,16.40
2012,06,17,10,45,16.50
2012,06,17,10,46,16.60
2012,06,17,10,47,16.60
2012,06,17,10,48,16.70
2012,06,17,10,49,16.70
2012,06,17,10,50,16.70
2012,06,17,10,51,16.70
2012,06,17,10,52,16.70
2012,06,17,10,53,16.50
2012,06,17,10,54,16.40
2012,06,17,10,55,16.20
2012,06,17,10,56,16.00
2012,06,17,10,57,15.90
2012,06,17,10,58,15.80
2012,06,17,10,59,15.80
2012,06,17,11,00,15.70
2012,06,17,11,01,15.70
2012,06,17,11,02,15.70
2012,06,17,11,03,15.70
2012,06,17,11,04,15.70
2012,06,17,11,05,15.80
2012,06,17,11,06,15.80
2012,06,17,11,07,15.80
2012,06,17,11,08,15.80
2012,06,17,11,09,15.80
2012,06,17,11,10,15.80
2012,06,17,11,11,15.80
2012,06,17,11,12,15.90
2012,06,17,11,13,16.00
2012,06,17,11,14,16.10
2012,06,17,11,15,16.20
2012,06,17,11,16,16.20
2012,06,17,11,17,16.30
2012,06,17,11,18,16.40
2012,06,17,11,19,16.50
2012,06,17,11,20,16.60
2012,06,17,11,21,16.70
2012,06,17,11,22,16.80
2012,06,17,11,23,16.80
2012,06,17,11,24,16.90
2012,06,17,11,25,16.90
2012,06,17,11,26,17.00
2012,06,17,11,27,17.10
2012,06,17,11,28,17.20
2012,06,17,11,29,17.30
2012,06,17,11,30,17.30
2012,06,17,11,31,17.30
2012,06,17,11,32,17.30
2012,06,17,11,33,17.30
2012,06,17,11,34,17.20
2012,06,17,11,35,17.20
2012,06,17,11,36,17.10
2012,06,17,11,37,17.10
2012,06,17,11,38,17.10
2012,06,17,11,39,17.20
2012,06,17,11,40,17.30
2012,06,17,11,41,17.50
2012,06,17,11,42,17.60
2012,06,17,11,43,17.70
2012,06,17,11,44,17.80
2012,06,17,11,45,17.90
2012,06,17,11,46,18.00
2012,06,17,11,47,18.00
2012,06,17,11,48,18.10
2012,06,17,11,49,18.10
2012,06,17,11,50,18.20
2012,06,17,11,51,18.20
2012,06,17,11,52,18.30
2012,06,17,11,53,18.30
2012,06,17,11,54,18.30
2012,06,17,11,55,18.30
2012,06,17,11,56,18.30
2012,06,17,11,57,18.30
2012,06,17,11,58,18.30
2012,06,17,11,59,18.30
2012,06,17,12,00,18.30
2012,06,17,12,01,18.30
2012,06,17,12,02,18.40
2012,06,17,12,03,18.50
2012,06,17,12,04,18.60
2012,06,17,12,05,18.70
2012,06,17,12,06,18.90
2012,06,17,12,07,19.00
2012,06,17,12,08,19.10
2012,06,17,12,09,19.20
2012,06,17,12,10,19.30
2012,06,17,12,11,19.50
2012,06,17,12,12,19.60
2012,06,17,12,13,19.50
2012,06,17,12,14,19.40
2012,06,17,12,15,19.30
2012,06,17,12,16,19.30
2012,06,17,12,17,19.30
2012,06,17,12,18,19.30
2012,06,17,12,19,19.20
2012,06,17,12,20,19.20
2012,06,17,12,21,19.10
2012,06,17,12,22,19.10
2012,06,17,12,23,19.20
2012,06,17,12,24,19.20
2012,06,17,12,25,19.30
2012,06,17,12,26,19.30
2012,06,17,12,27,19.30
2012,06,17,12,28,19.40
2012,06,17,12,29,19.30
2012,06,17,12,30,19.30
2012,06,17,12,31,19.20
2012,06,17,12,32,19.20
2012,06,17,12,33,19.20
2012,06,17,12,34,19.20
2012,06,17,12,35,19.20
2012,06,17,12,36,19.20
2012,06,17,12,37,19.20
2012,06,17,12,38,19.10
2012,06,17,12,39,19.00
2012,06,17,12,40,19.00
2012,06,17,12,41,19.00
2012,06,17,12,42,19.00
2012,06,17,12,43,18.90
2012,06,17,12,44,18.90
2012,06,17,12,45,18.80
2012,06,17,12,46,18.70
2012,06,17,12,47,18.70
2012,06,17,12,48,18.70
2012,06,17,12,49,18.70
2012,06,17,12,50,18.80
2012,06,17,12,51,18.80
2012,06,17,12,52,18.80
2012,06,17,12,53,18.80
2012,06,17,12,54,18.80
2012,06,17,12,55,18.80
2012,06,17,12,56,18.70
2012,06,17,12,57,18.80
2012,06,17,12,58,18.80
2012,06,17,12,59,18.80
2012,06,17,13,00,18.80
2012,06,17,13,01,18.90
2012,06,17,13,02,18.90
2012,06,17,13,03,18.90
2012,06,17,13,04,19.00
2012,06,17,13,05,19.00
2012,06,17,13,06,19.00
2012,06,17,13,07,18.90
2012,06,17,13,08,18.90
2012,06,17,13,09,18.90
2012,06,17,13,10,18.90
2012,06,17,13,11,18.80
2012,06,17,13,12,18.90
2012,06,17,13,13,18.90
2012,06,17,13,14,18.90
2012,06,17,13,15,19.00
2012,06,17,13,16,19.10
2012,06,17,13,17,19.20
2012,06,17,13,18,19.20
2012,06,17,13,19,19.20
2012,06,17,13,20,19.10
2012,06,17,13,21,19.10
2012,06,17,13,22,19.00
2012,06,17,13,23,18.90
2012,06,17,13,24,18.90
2012,06,17,13,25,18.80
2012,06,17,13,26,18.80
2012,06,17,13,27,18.80
2012,06,17,13,28,18.80
2012,06,17,13,29,18.80
2012,06,17,13,30,18.80
2012,06,17,13,31,18.80
2012,06,17,13,32,18.80
2012,06,17,13,33,18.80
2012,06,17,13,34,18.80
2012,06,17,13,35,18.80
2012,06,17,13,36,18.80
2012,06,17,13,37,18.80
2012,06,17,13,38,18.80
2012,06,17,13,39,18.60
2012,06,17,13,40,18.60
2012,06,17,13,41,18.50
2012,06,17,13,42,18.60
2012,06,17,13,43,18.60
2012,06,17,13,44,18.50
2012,06,17,13,45,18.60
2012,06,17,13,46,18.60
2012,06,17,13,47,18.50
2012,06,17,13,48,18.60
2012,06,17,13,49,18.60
2012,06,17,13,50,18.60
2012,06,17,13,51,18.60
2012,06,17,13,52,18.60
2012,06,17,13,53,18.70
2012,06,17,13,54,18.70
2012,06,17,13,55,18.70
2012,06,17,13,56,18.70
2012,06,17,13,57,18.70
2012,06,17,13,58,18.70
2012,06,17,13,59,18.70
2012,06,17,14,00,18.60
2012,06,17,14,01,18.50
2012,06,17,14,02,18.40
2012,06,17,14,03,18.30
2012,06,17,14,04,18.30
2012,06,17,14,05,18.30
2012,06,17,14,06,18.30
2012,06,17,14,07,18.30
2012,06,17,14,08,18.30
2012,06,17,14,09,18.30
2012,06,17,14,10,18.30
2012,06,17,14,11,18.20
2012,06,17,14,12,18.20
2012,06,17,14,13,18.20
2012,06,17,14,14,18.10
2012,06,17,14,15,18.10
2012,06,17,14,16,18.10
2012,06,17,14,17,18.10
2012,06,17,14,18,18.10
2012,06,17,14,19,18.20
2012,06,17,14,20,18.40
2012,06,17,14,21,18.40
2012,06,17,14,22,18.40
2012,06,17,14,23,18.40
2012,06,17,14,24,18.40
2012,06,17,14,25,18.50
2012,06,17,14,26,18.60
2012,06,17,14,27,18.70
2012,06,17,14,28,18.80
2012,06,17,14,29,18.90
2012,06,17,14,30,18.90
2012,06,17,14,31,19.00
2012,06,17,14,32,19.10
2012,06,17,14,33,19.10
2012,06,17,14,34,19.20
2012,06,17,14,35,19.20
2012,06,17,14,36,19.20
2012,06,17,14,37,19.00
2012,06,17,14,38,19.00
2012,06,17,14,39,19.00
2012,06,17,14,40,19.10
2012,06,17,14,41,19.10
2012,06,17,14,42,19.10
2012,06,17,14,43,19.00
2012,06,17,14,44,18.90
2012,06,17,14,45,18.80
2012,06,17,14,46,18.70
2012,06,17,14,47,18.50
2012,06,17,14,48,18.30
2012,06,17,14,49,18.20
2012,06,17,14,50,18.10
2012,06,17,14,51,18.00
2012,06,17,14,52,17.90
2012,06,17,14,53,17.90
2012,06,17,14,54,17.80
2012,06,17,14,55,17.80
2012,06,17,14,56,17.80
2012,06,17,14,57,17.80
2012,06,17,14,58,17.90
2012,06,17,14,59,17.90
2012,06,17,15,00,17.90
2012,06,17,15,01,17.80
2012,06,17,15,02,17.80
2012,06,17,15,03,17.80
2012,06,17,15,04,17.80
2012,06,17,15,05,17.80
2012,06,17,15,06,17.80
2012,06,17,15,07,17.70
2012,06,17,15,08,17.70
2012,06,17,15,09,17.70
2012,06,17,15,10,17.80
2012,06,17,15,11,17.80
2012,06,17,15,12,17.80
2012,06,17,15,13,17.80
2012,06,17,15,14,17.80
2012,06,17,15,15,17.80
2012,06,17,15,16,17.80
2012,06,17,15,17,17.70
2012,06,17,15,18,17.70
2012,06,17,15,19,17.70
2012,06,17,15,20,17.70
2012,06,17,15,21,17.70
2012,06,17,15,22,17.80
2012,06,17,15,23,17.80
2012,06,17,15,24,17.80
2012,06,17,15,25,17.80
2012,06,17,15,26,17.80
2012,06,17,15,27,17.80
2012,06,17,15,28,17.50
2012,06,17,15,29,17.40
2012,06,17,15,30,17.40
2012,06,17,15,31,17.40
2012,06,17,15,32,17.40
2012,06,17,15,33,17.40
2012,06,17,15,34,17.40
2012,06,17,15,35,17.40
2012,06,17,15,36,17.40
2012,06,17,15,37,17.40
2012,06,17,15,38,17.40
2012,06,17,15,39,17.40
2012,06,17,15,40,17.50
2012,06,17,15,41,17.50
2012,06,17,15,42,17.60
2012,06,17,15,43,17.60
2012,06,17,15,44,17.60
2012,06,17,15,45,17.60
2012,06,17,15,46,17.60
2012,06,17,15,47,17.70
2012,06,17,15,48,17.70
2012,06,17,15,49,17.60
2012,06,17,15,50,17.60
2012,06,17,15,51,17.60
2012,06,17,15,52,17.70
2012,06,17,15,53,17.70
2012,06,17,15,54,17.70
2012,06,17,15,55,17.70
2012,06,17,15,56,17.80
2012,06,17,15,57,17.70
2012,06,17,15,58,17.70
2012,06,17,15,59,17.70
2012,06,17,16,00,17.60
2012,06,17,16,01,17.60
2012,06,17,16,02,17.60
2012,06,17,16,03,17.60
2012,06,17,16,04,17.70
2012,06,17,16,05,17.80
2012,06,17,16,06,17.90
2012,06,17,16,07,18.00
2012,06,17,16,08,18.20
2012,06,17,16,09,18.30
2012,06,17,16,10,18.40
2012,06,17,16,11,18.50
2012,06,17,16,12,18.40
2012,06,17,16,13,18.40
2012,06,17,16,14,18.40
2012,06,17,16,15,18.40
2012,06,17,16,16,18.40
2012,06,17,16,17,18.30
2012,06,17,16,18,18.30
2012,06,17,16,19,18.30
2012,06,17,16,20,18.30
2012,06,17,16,21,18.20
2012,06,17,16,22,18.20
2012,06,17,16,23,18.30
2012,06,17,16,24,18.30
2012,06,17,16,25,18.50
2012,06,17,16,26,18.60
2012,06,17,16,27,18.70
2012,06,17,16,28,18.70
2012,06,17,16,29,18.80
2012,06,17,16,30,18.80
2012,06,17,16,31,18.80
2012,06,17,16,32,18.70
2012,06,17,16,33,18.70
2012,06,17,16,34,18.60
2012,06,17,16,35,18.60
2012,06,17,16,36,18.60
2012,06,17,16,37,18.60
2012,06,17,16,38,18.70
2012,06,17,16,39,18.70
2012,06,17,16,40,18.70
2012,06,17,16,41,18.60
2012,06,17,16,42,18.50
2012,06,17,16,43,18.50
2012,06,17,16,44,18.50
2012,06,17,16,45,18.60
2012,06,17,16,46,18.60
2012,06,17,16,47,18.60
2012,06,17,16,48,18.50
2012,06,17,16,49,18.50
2012,06,17,16,50,18.40
2012,06,17,16,51,18.30
2012,06,17,16,52,18.30
2012,06,17,16,53,18.20
2012,06,17,16,54,18.10
2012,06,17,16,55,18.10
2012,06,17,16,56,18.10
2012,06,17,16,57,18.10
2012,06,17,16,58,18.20
2012,06,17,16,59,18.30
2012,06,17,17,00,18.30
2012,06,17,17,01,18.40
2012,06,17,17,02,18.40
2012,06,17,17,03,18.30
2012,06,17,17,04,18.30
2012,06,17,17,05,18.20
2012,06,17,17,06,18.20
2012,06,17,17,07,18.10
2012,06,17,17,08,18.00
2012,06,17,17,09,18.00
2012,06,17,17,10,18.00
2012,06,17,17,11,18.00
2012,06,17,17,12,18.00
2012,06,17,17,13,17.90
2012,06,17,17,14,17.90
2012,06,17,17,15,17.80
2012,06,17,17,16,17.70
2012,06,17,17,17,17.70
2012,06,17,17,18,17.60
2012,06,17,17,19,17.50